Location: Katherine
(14.4670°S, 132.2670°E)
Time: 05:37:51
(UTC+09:30)

ISS - Pass Details

Date: 18 June 2018
Orbit: 402 x 406 km, 51.6° (Epoch: 20 June)

Event Time Altitude Azimuth Distance (km) Brightness Sun altitude
Rises 20:22:44 0° 325° (NW) 2,298 0.8 -28.5°
Reaches altitude 10° 20:24:48 10° 326° (NW) 1,445 -0.4 -29.0°
Enters shadow 20:25:03 12° 326° (NW) 1,343 -0.6 -29.0°
